Weather History for Yakima, WA

Change the Weather History Date:

Wednesday, June 25, 2014

  Actual Average Record
Temperature  
Mean Temperature 67 °F 66 °F  
Max Temperature 83 °F 82 °F 101 °F (1992)
Min Temperature 51 °F 50 °F 36 °F (2001)
Degree Days  
Heating Degree Days 0 2  
Month to date heating degree days 29 88  
Since 1 June heating degree days 29 88  
Since 1 July heating degree days 5599 6032  
Cooling Degree Days 2 3  
Month to date cooling degree days 91 45  
Year to date cooling degree days 114 65  
Since 1 June cooling degree days 91 45  
Growing Degree Days 16 (Base 50)    
Moisture  
Dew Point 46 °F    
Average Humidity 51    
Maximum Humidity 77    
Minimum Humidity 24    
Precipitation  
Precipitation 0.00 in 0.02 in 0.32 in (1980)
Month to date precipitation 0.03 0.55  
Year to date precipitation 2.95 4.22  
Snow  
Snow 0.00 in 0.00 in 0.00 in (2002)
Month to date snowfall 0.0 0.0  
Year to date snowfall 19.9 8.6  
Since 1 July snowfall 19.9 21.6  
Snow Depth 0.00 in    
Sea Level Pressure  
Sea Level Pressure 29.86 in    
Wind  
Wind Speed 6 mph (West)    
Max Wind Speed 13 mph    
Max Gust Speed 17 mph    
Visibility 10 miles    
Events      
T = Trace of Precipitation, MM = Missing Value Source: NWS Daily Summary

Daily Weather History Graph

Daily Weather History Graph

Search for Another Location

Airport:

Trip Planner

Search our weather history database for the weather conditions in past years. The results will help you decide how hot, cold, wet, or windy it might be!

Date:

Astronomy

Jun. 25, 2014 Rise Set
Actual Time 5:10 AM PDT 8:59 PM PDT
Civil Twilight 4:30 AM PDT 9:38 PM PDT
Nautical Twilight 3:37 AM PDT 10:32 PM PDT
Astronomical Twilight 2:20 AM PDT 11:49 PM PDT
Moon 4:11 AM PDT (6/25) 7:30 PM PDT (6/25)
Length of Visible Light 17h 07m
Length of Day
15h 49m
Waning Crescent, 2% of the Moon is Illuminated
Jun 25
Waning Crescent
Jun 27
New
Jul 5
First Quarter
Jul 12
Full
Jul 18
Last Quarter

Hourly Weather History & Observations

Time (PDT) Temp. Dew Point Humidity Pressure Visibility Wind Dir Wind Speed Gust Speed Precip Events Conditions
12:53 AM 66.0 °F 48.0 °F 52% 29.97 in 10.0 mi NNW 6.9 mph - N/A   Clear
1:53 AM 64.0 °F 48.0 °F 56% 29.96 in 10.0 mi NW 6.9 mph - N/A   Clear
2:53 AM 64.9 °F 48.0 °F 54% 29.96 in 10.0 mi NNW 8.1 mph - N/A   Clear
3:53 AM 55.0 °F 46.0 °F 72% 29.96 in 10.0 mi West 4.6 mph - N/A   Clear
4:53 AM 52.0 °F 45.0 °F 77% 29.97 in 10.0 mi West 5.8 mph - N/A   Clear
5:53 AM 53.1 °F 45.0 °F 74% 29.97 in 10.0 mi WSW 3.5 mph - N/A   Scattered Clouds
6:53 AM 63.0 °F 46.9 °F 56% 29.97 in 10.0 mi WNW 8.1 mph - N/A   Scattered Clouds
7:53 AM 66.0 °F 46.9 °F 50% 29.96 in 10.0 mi NW 8.1 mph - N/A   Clear
8:53 AM 70.0 °F 48.0 °F 46% 29.94 in 10.0 mi WNW 4.6 mph - N/A   Clear
9:53 AM 73.0 °F 46.9 °F 39% 29.92 in 10.0 mi WNW 5.8 mph - N/A   Clear
10:53 AM 75.9 °F 45.0 °F 33% 29.90 in 10.0 mi NNE 3.5 mph - N/A   Clear
11:53 AM 79.0 °F 44.1 °F 29% 29.88 in 10.0 mi East 3.5 mph - N/A   Clear
12:53 PM 78.8 °F 42.8 °F 28% 29.88 in 10.0 mi East 8.1 mph - N/A   Clear
1:53 PM 80.1 °F 43.0 °F 27% 29.84 in 10.0 mi South 4.6 mph - N/A   Clear
2:53 PM 81.0 °F 44.1 °F 27% 29.82 in 10.0 mi South 5.8 mph - N/A   Clear
3:53 PM 82.0 °F 43.0 °F 25% 29.79 in 10.0 mi Variable 4.6 mph - N/A   Scattered Clouds
4:53 PM 82.0 °F 42.1 °F 24% 29.77 in 10.0 mi SSW 4.6 mph - N/A   Scattered Clouds
5:53 PM 82.4 °F 44.6 °F 26% 29.77 in 10.0 mi South 6.9 mph - N/A   Scattered Clouds
6:53 PM 78.8 °F 42.8 °F 28% 29.75 in 10.0 mi SE 9.2 mph - N/A   Scattered Clouds
7:53 PM 78.1 °F 45.0 °F 31% 29.73 in 10.0 mi SE 8.1 mph - N/A   Scattered Clouds
8:53 PM 77.0 °F 46.0 °F 33% 29.72 in 10.0 mi SE 10.4 mph - N/A   Scattered Clouds
9:53 PM 73.0 °F 48.9 °F 42% 29.72 in 10.0 mi SSW 5.8 mph - N/A   Clear
10:53 PM 72.0 °F 50.0 °F 46% 29.73 in 10.0 mi NNW 8.1 mph - N/A   Clear
11:53 PM 71.1 °F 50.0 °F 47% 29.72 in 10.0 mi WNW 5.8 mph - N/A   Clear